Tracking 30995 objects as of 5-Jul-2025
HD Live streaming from Space Station
objects crossing your sky now

STARLINK-31465

Track STARLINK-31465 now!
10-day predictions
STARLINK-31465 is classified as:


NORAD ID: 59012
Int'l Code: 2024-036Q
Perigee: 481.6 km
Apogee: 483.1 km
Inclination: 53.2 °
Period: 94.1 minutes
Semi major axis: 6853 km
RCS: Unknown
Launch date: February 23, 2024
Source: United States (US)
Launch site: AIR FORCE WESTERN TEST RANGE (AFWTR)
Your satellite tracking list
Your tracking list is empty




NASA's NSSDC Master Catalog

Two Line Element Set (TLE):
1 59012U 24036Q   25186.30953491 -.00000711  00000-0 -11880-4 0  9991
2 59012  53.1593 147.5087 0001124  81.7579 278.3550 15.30193798 77440
Source of the keplerian elements: AFSPC